STARLINK-3099 (49446 NORAD) Tracking and Keplerian Element Data

This shows tracking and keplerian element data for the satellite.

Feedback or suggestion? Click here.




ElementValue
Catalog49446
NameSTARLINK-3099
Epoch Orbit485
Epoch Day340.25001157
Epoch Year2021
RAAN20.5767
Inclination53.2186
Eccentricity0.0002082
Argument of Perigee32.6604
Mean Anonmoly130.0825
Mean Motion15.73220877
Decay Rate-0.00020494
L11 49446U 21104AQ 21340.25001157 -.00020494 00000+0 -14181-3 0 9994
L22 49446 53.2186 20.5767 0002082 32.6604 130.0825 15.73220877 4852

Live tracking and technical data element details for STARLINK-3099 (NORAD 49446). STARLINK-3099 can be tracked NOW for your location showing map with azimuth and elevation plus other details from your city location.

Track the satellite on the map from your city or location and see movement details for azimuth, elevation, latitude, longitude, range, height, and movement on the map or in text.







IsCatalogInMostPopularTable: catalog: 49446, numindb: 1
Update: records affected: 1



GetName: 49446 STARLINK-3099

Hit Count: updated at: Wed, 08 Dec 2021 16:48:37 GMT